Location: ??????
(56.0120°N, 39.1740°E)
Time: 02:16:09
(UTC+00:00)

USA 234 - Pass Details

Date: 14 April 2026
Orbit: 1102 x 1106 km, 123.0° (Epoch: 4 January)

Event Time Altitude Azimuth Distance (km) Brightness Sun altitude
Rises 18:54:24 0° 72° (ENE) 3,926 6.0 -17.5°
Reaches altitude 10° 18:56:53 10° 73° (ENE) 2,968 5.3 -17.7°
Maximum altitude 19:03:28 85° 163° (SSE) 1,114 3.2 -18.2°
Drops below altitude 10° 19:10:03 10° 253° (WSW) 2,965 5.7 -18.8°
Sets 19:12:32 0° 254° (WSW) 3,922 6.4 -19.0°
